TimeCST,TemperatureF,Dew PointF,Humidity,Sea Level PressureIn,VisibilityMPH,Wind Direction,Wind SpeedMPH,Gust SpeedMPH,PrecipitationIn,Events,Conditions,WindDirDegrees,DateUTC
12:15 AM,32.0,15.1,50,30.13,10.0,SW,9.2,-,N/A,,Clear,230,2012-12-05 06:15:00
12:35 AM,32.0,15.4,51,30.13,10.0,SW,6.9,-,N/A,,Clear,230,2012-12-05 06:35:00
12:55 AM,32.7,15.4,49,30.14,10.0,SW,5.8,-,N/A,,Clear,220,2012-12-05 06:55:00
1:15 AM,31.6,16.2,53,30.13,10.0,WSW,6.9,-,N/A,,Clear,250,2012-12-05 07:15:00
1:55 AM,35.8,16.7,46,30.10,10.0,West,4.6,-,N/A,,Clear,270,2012-12-05 07:55:00
2:15 AM,34.5,17.4,50,30.10,10.0,WNW,4.6,-,N/A,,Clear,290,2012-12-05 08:15:00
2:35 AM,36.3,17.6,47,30.10,10.0,West,9.2,-,N/A,,Clear,280,2012-12-05 08:35:00
2:55 AM,36.1,17.6,47,30.10,10.0,West,6.9,-,N/A,,Clear,270,2012-12-05 08:55:00
3:15 AM,34.5,17.6,50,30.10,10.0,West,4.6,-,N/A,,Clear,270,2012-12-05 09:15:00
3:35 AM,35.8,17.6,48,30.09,10.0,WSW,6.9,-,N/A,,Clear,250,2012-12-05 09:35:00
3:55 AM,36.0,17.4,47,30.08,10.0,WSW,5.8,-,N/A,,Clear,250,2012-12-05 09:55:00
4:15 AM,38.5,17.6,43,30.08,10.0,West,5.8,-,N/A,,Clear,260,2012-12-05 10:15:00
4:35 AM,36.7,18.1,47,30.08,10.0,WSW,6.9,-,N/A,,Clear,250,2012-12-05 10:35:00
4:55 AM,36.7,18.5,48,30.07,10.0,WSW,8.1,-,N/A,,Clear,240,2012-12-05 10:55:00
5:15 AM,38.1,18.5,45,30.07,10.0,SSW,5.8,-,N/A,,Clear,200,2012-12-05 11:15:00
5:35 AM,37.6,18.5,46,30.06,10.0,South,8.1,-,N/A,,Clear,180,2012-12-05 11:35:00
5:55 AM,37.2,18.5,47,30.04,10.0,South,10.4,-,N/A,,Clear,170,2012-12-05 11:55:00
6:15 AM,37.0,18.1,46,30.06,10.0,SSE,4.6,-,N/A,,Clear,150,2012-12-05 12:15:00
6:35 AM,39.0,17.6,42,30.04,10.0,South,12.7,-,N/A,,Clear,170,2012-12-05 12:35:00
6:55 AM,38.3,18.3,45,30.03,10.0,South,8.1,-,N/A,,Clear,190,2012-12-05 12:55:00
8:35 AM,42.1,19.0,40,30.02,10.0,SW,10.4,-,N/A,,Clear,230,2012-12-05 14:35:00
8:55 AM,42.3,19.4,40,30.01,10.0,SW,8.1,-,N/A,,Clear,220,2012-12-05 14:55:00
9:15 AM,43.2,20.5,40,30.00,10.0,SW,4.6,-,N/A,,Clear,220,2012-12-05 15:15:00
9:35 AM,46.4,21.2,37,30.00,10.0,WSW,3.5,-,N/A,,Clear,240,2012-12-05 15:35:00
9:55 AM,48.2,22.1,36,29.98,10.0,Calm,Calm,-,N/A,,Clear,0,2012-12-05 15:55:00
10:15 AM,53.6,21.6,29,29.97,10.0,SW,10.4,-,N/A,,Clear,220,2012-12-05 16:15:00
10:35 AM,56.8,22.1,26,29.96,10.0,SW,15.0,18.4,N/A,,Clear,220,2012-12-05 16:35:00
10:55 AM,58.5,22.1,25,29.95,10.0,SW,13.8,-,N/A,,Clear,220,2012-12-05 16:55:00
11:15 AM,60.8,22.5,23,29.94,10.0,SW,15.0,-,N/A,,Clear,220,2012-12-05 17:15:00
11:35 AM,61.0,23.5,24,29.93,10.0,SW,17.3,-,N/A,,Clear,220,2012-12-05 17:35:00
11:55 AM,60.8,23.5,24,29.92,10.0,SW,16.1,-,N/A,,Clear,220,2012-12-05 17:55:00
12:15 PM,60.4,24.3,25,29.90,10.0,SW,12.7,-,N/A,,Clear,230,2012-12-05 18:15:00
12:35 PM,58.6,25.7,28,29.89,10.0,SW,15.0,20.7,N/A,,Mostly Cloudy,230,2012-12-05 18:35:00
12:55 PM,56.5,25.0,30,29.88,10.0,WSW,15.0,18.4,N/A,,Overcast,250,2012-12-05 18:55:00
1:15 PM,55.4,24.3,30,29.86,10.0,WSW,15.0,-,N/A,,Mostly Cloudy,250,2012-12-05 19:15:00
1:35 PM,55.9,24.6,30,29.86,10.0,WSW,15.0,-,N/A,,Scattered Clouds,240,2012-12-05 19:35:00
1:55 PM,57.6,25.7,29,29.86,10.0,West,12.7,-,N/A,,Clear,260,2012-12-05 19:55:00
2:15 PM,56.8,25.7,30,29.85,10.0,SW,11.5,-,N/A,,Clear,230,2012-12-05 20:15:00
2:35 PM,57.4,26.6,31,29.84,10.0,West,8.1,-,N/A,,Clear,260,2012-12-05 20:35:00
2:55 PM,57.9,26.6,30,29.83,10.0,WSW,16.1,-,N/A,,Clear,250,2012-12-05 20:55:00
3:15 PM,61.3,25.9,26,29.82,10.0,WSW,12.7,-,N/A,,Clear,240,2012-12-05 21:15:00
3:35 PM,62.4,23.9,23,29.82,10.0,WSW,16.1,27.6,N/A,,Clear,250,2012-12-05 21:35:00
3:55 PM,61.7,23.4,23,29.82,10.0,West,17.3,21.9,N/A,,Clear,260,2012-12-05 21:55:00
4:15 PM,63.0,21.2,20,29.82,10.0,West,16.1,-,N/A,,Clear,270,2012-12-05 22:15:00
4:35 PM,61.7,21.2,21,29.82,10.0,West,11.5,-,N/A,,Clear,270,2012-12-05 22:35:00
4:55 PM,61.0,20.7,21,29.83,10.0,West,13.8,-,N/A,,Clear,280,2012-12-05 22:55:00
5:15 PM,57.7,20.8,24,29.83,10.0,West,10.4,-,N/A,,Scattered Clouds,280,2012-12-05 23:15:00
5:35 PM,58.8,19.6,22,29.83,10.0,West,12.7,-,N/A,,Scattered Clouds,280,2012-12-05 23:35:00
5:55 PM,59.4,18.5,20,29.83,10.0,WNW,12.7,-,N/A,,Scattered Clouds,290,2012-12-05 23:55:00
6:15 PM,59.9,18.7,20,29.83,10.0,NW,10.4,-,N/A,,Mostly Cloudy,310,2012-12-06 00:15:00
6:35 PM,57.9,19.8,23,29.82,10.0,West,20.7,-,N/A,,Scattered Clouds,280,2012-12-06 00:35:00
6:55 PM,61.0,20.7,21,29.83,10.0,West,28.8,36.8,N/A,,Clear,280,2012-12-06 00:55:00
7:15 PM,59.0,21.4,23,29.83,10.0,WNW,17.3,21.9,N/A,,Scattered Clouds,290,2012-12-06 01:15:00
7:35 PM,58.5,23.0,26,29.83,10.0,West,29.9,36.8,N/A,,Scattered Clouds,280,2012-12-06 01:35:00
7:55 PM,58.1,23.2,26,29.83,10.0,WNW,23.0,32.2,N/A,,Scattered Clouds,300,2012-12-06 01:55:00
8:15 PM,56.8,23.5,28,29.83,10.0,WNW,25.3,29.9,N/A,,Scattered Clouds,290,2012-12-06 02:15:00
8:35 PM,55.2,23.5,29,29.85,10.0,WNW,20.7,-,N/A,,Scattered Clouds,290,2012-12-06 02:35:00
8:55 PM,55.0,23.5,30,29.85,10.0,West,19.6,25.3,N/A,,Scattered Clouds,270,2012-12-06 02:55:00
9:15 PM,53.2,23.7,32,29.85,10.0,WNW,13.8,-,N/A,,Mostly Cloudy,290,2012-12-06 03:15:00
9:35 PM,53.6,23.7,31,29.86,10.0,WNW,12.7,-,N/A,,Mostly Cloudy,290,2012-12-06 03:35:00
9:55 PM,52.2,23.5,33,29.86,10.0,West,9.2,-,N/A,,Scattered Clouds,270,2012-12-06 03:55:00
10:15 PM,48.6,23.2,37,29.86,10.0,West,9.2,-,N/A,,Clear,270,2012-12-06 04:15:00
10:35 PM,45.7,23.0,41,29.87,10.0,WNW,6.9,-,N/A,,Scattered Clouds,290,2012-12-06 04:35:00
10:55 PM,46.2,23.5,41,29.87,10.0,West,11.5,-,N/A,,Scattered Clouds,270,2012-12-06 04:55:00
11:15 PM,43.9,23.0,44,29.87,10.0,WNW,9.2,-,N/A,,Clear,290,2012-12-06 05:15:00
11:35 PM,41.9,23.2,47,29.88,10.0,NW,5.8,-,N/A,,Clear,320,2012-12-06 05:35:00
11:55 PM,40.8,23.4,50,29.89,10.0,WNW,4.6,-,N/A,,Clear,300,2012-12-06 05:55:00